Time,TemperatureF,DewpointF,PressureIn,WindDirection,WindDirectionDegrees,WindSpeedMPH,WindSpeedGustMPH,Humidity,HourlyPrecipIn,Conditions,Clouds,dailyrainin,SoftwareType,DateUTC
2013-01-24 00:02:00,52.9,22.3,30.16,West,275,3.0,7.0,30,0.00,,,0.00,meteohub,2013-01-24 07:02:00,
2013-01-24 00:07:00,53.1,21.6,30.16,West,274,1.0,5.0,29,0.00,,,0.00,meteohub,2013-01-24 07:07:00,
2013-01-24 00:12:00,53.2,21.7,30.16,West,273,3.0,5.0,29,0.00,,,0.00,meteohub,2013-01-24 07:12:00,
2013-01-24 00:17:00,53.2,21.7,30.16,West,273,3.0,5.0,29,0.00,,,0.00,meteohub,2013-01-24 07:17:00,
2013-01-24 00:22:00,53.2,21.7,30.16,West,277,4.0,5.0,29,0.00,,,0.00,meteohub,2013-01-24 07:22:00,
2013-01-24 00:28:00,53.2,21.7,30.16,West,277,1.0,5.0,29,0.00,,,0.00,meteohub,2013-01-24 07:28:00,
2013-01-24 00:33:00,53.2,21.0,30.16,West,277,0.0,5.0,28,0.00,,,0.00,meteohub,2013-01-24 07:33:00,
2013-01-24 00:38:00,53.4,21.2,30.15,West,277,2.0,5.0,28,0.00,,,0.00,meteohub,2013-01-24 07:38:00,
2013-01-24 00:44:00,53.4,21.9,30.15,West,277,0.0,5.0,29,0.00,,,0.00,meteohub,2013-01-24 07:44:00,
2013-01-24 00:49:00,53.1,21.6,30.16,West,277,0.0,4.0,29,0.00,,,0.00,meteohub,2013-01-24 07:49:00,
2013-01-24 00:55:00,52.7,21.4,30.16,West,277,0.0,3.0,29,0.00,,,0.00,meteohub,2013-01-24 07:55:00,
2013-01-24 01:00:00,52.5,21.2,30.16,West,277,0.0,3.0,29,0.00,,,0.00,meteohub,2013-01-24 08:00:00,
2013-01-24 01:05:00,52.3,21.0,30.16,West,277,0.0,3.0,29,0.00,,,0.00,meteohub,2013-01-24 08:05:00,
2013-01-24 01:10:00,52.2,20.8,30.15,West,277,0.0,0.0,29,0.00,,,0.00,meteohub,2013-01-24 08:10:00,
2013-01-24 01:15:00,52.0,20.7,30.16,West,277,0.0,1.0,29,0.00,,,0.00,meteohub,2013-01-24 08:15:00,
2013-01-24 01:21:00,52.2,20.8,30.15,West,277,0.0,1.0,29,0.00,,,0.00,meteohub,2013-01-24 08:21:00,
2013-01-24 01:26:00,52.0,20.7,30.15,West,277,0.0,0.0,29,0.00,,,0.00,meteohub,2013-01-24 08:26:00,
2013-01-24 01:31:00,51.6,21.2,30.15,West,277,0.0,0.0,30,0.00,,,0.00,meteohub,2013-01-24 08:31:00,
2013-01-24 01:36:00,51.4,21.0,30.15,West,277,0.0,0.0,30,0.00,,,0.00,meteohub,2013-01-24 08:36:00,
2013-01-24 01:42:00,51.3,20.8,30.15,West,277,0.0,0.0,30,0.00,,,0.00,meteohub,2013-01-24 08:42:00,
2013-01-24 01:47:00,51.3,21.6,30.15,West,277,0.0,0.0,31,0.00,,,0.00,meteohub,2013-01-24 08:47:00,
2013-01-24 01:52:00,51.1,21.6,30.16,West,277,0.0,0.0,31,0.00,,,0.00,meteohub,2013-01-24 08:52:00,
2013-01-24 01:58:00,50.7,21.9,30.16,West,277,0.0,0.0,32,0.00,,,0.00,meteohub,2013-01-24 08:58:00,
2013-01-24 02:03:00,50.7,21.2,30.15,West,277,0.0,0.0,31,0.00,,,0.00,meteohub,2013-01-24 09:03:00,
2013-01-24 02:09:00,50.5,21.0,30.15,West,277,0.0,0.0,31,0.00,,,0.00,meteohub,2013-01-24 09:09:00,
2013-01-24 02:14:00,50.5,21.7,30.15,West,277,0.0,0.0,32,0.00,,,0.00,meteohub,2013-01-24 09:14:00,
2013-01-24 02:19:00,50.4,21.6,30.15,West,277,0.0,1.0,32,0.00,,,0.00,meteohub,2013-01-24 09:19:00,
2013-01-24 02:24:00,50.4,21.6,30.15,West,277,0.0,1.0,32,0.00,,,0.00,meteohub,2013-01-24 09:24:00,
2013-01-24 02:30:00,50.4,21.6,30.16,West,277,0.0,1.0,32,0.00,,,0.00,meteohub,2013-01-24 09:30:00,
2013-01-24 02:35:00,50.2,22.1,30.15,West,277,0.0,1.0,33,0.00,,,0.00,meteohub,2013-01-24 09:35:00,
2013-01-24 02:40:00,50.4,21.6,30.15,West,277,0.0,1.0,32,0.00,,,0.00,meteohub,2013-01-24 09:40:00,
2013-01-24 02:45:00,50.2,22.1,30.15,West,277,0.0,0.0,33,0.00,,,0.00,meteohub,2013-01-24 09:45:00,
2013-01-24 02:51:00,50.2,22.1,30.16,West,277,0.0,0.0,33,0.00,,,0.00,meteohub,2013-01-24 09:51:00,
2013-01-24 02:56:00,50.2,22.1,30.16,West,277,0.0,1.0,33,0.00,,,0.00,meteohub,2013-01-24 09:56:00,
2013-01-24 03:02:00,50.2,22.1,30.16,West,277,0.0,1.0,33,0.00,,,0.00,meteohub,2013-01-24 10:02:00,
2013-01-24 03:07:00,50.0,22.6,30.16,West,277,0.0,0.0,34,0.00,,,0.00,meteohub,2013-01-24 10:07:00,
2013-01-24 03:12:00,49.8,22.6,30.16,West,277,0.0,0.0,34,0.00,,,0.00,meteohub,2013-01-24 10:12:00,
2013-01-24 03:17:00,50.0,22.1,30.16,West,277,0.0,0.0,33,0.00,,,0.00,meteohub,2013-01-24 10:17:00,
2013-01-24 03:22:00,50.4,23.0,30.16,West,277,0.0,0.0,34,0.00,,,0.00,meteohub,2013-01-24 10:22:00,
2013-01-24 03:28:00,50.4,23.0,30.16,West,277,2.0,2.0,34,0.00,,,0.00,meteohub,2013-01-24 10:28:00,
2013-01-24 03:33:00,50.5,22.5,30.16,West,277,0.0,1.0,33,0.00,,,0.00,meteohub,2013-01-24 10:33:00,
2013-01-24 03:38:00,50.5,22.5,30.15,West,277,0.0,2.0,33,0.00,,,0.00,meteohub,2013-01-24 10:38:00,
2013-01-24 03:44:00,50.4,22.3,30.15,West,277,0.0,2.0,33,0.00,,,0.00,meteohub,2013-01-24 10:44:00,
2013-01-24 03:49:00,50.4,22.3,30.14,West,277,0.0,1.0,33,0.00,,,0.00,meteohub,2013-01-24 10:49:00,
2013-01-24 03:54:00,50.4,22.3,30.14,West,277,0.0,0.0,33,0.00,,,0.00,meteohub,2013-01-24 10:54:00,
2013-01-24 04:00:00,50.2,22.8,30.14,West,277,0.0,0.0,34,0.00,,,0.00,meteohub,2013-01-24 11:00:00,
2013-01-24 04:05:00,50.2,22.8,30.14,West,277,0.0,0.0,34,0.00,,,0.00,meteohub,2013-01-24 11:05:00,
2013-01-24 04:10:00,50.0,22.6,30.14,West,277,0.0,0.0,34,0.00,,,0.00,meteohub,2013-01-24 11:10:00,
2013-01-24 04:15:00,49.8,22.6,30.14,West,277,0.0,0.0,34,0.00,,,0.00,meteohub,2013-01-24 11:15:00,
2013-01-24 04:21:00,49.6,23.2,30.14,West,277,0.0,0.0,35,0.00,,,0.00,meteohub,2013-01-24 11:21:00,
2013-01-24 04:26:00,49.5,23.0,30.14,West,277,0.0,0.0,35,0.00,,,0.00,meteohub,2013-01-24 11:26:00,
2013-01-24 04:31:00,49.3,22.8,30.14,West,277,0.0,0.0,35,0.00,,,0.00,meteohub,2013-01-24 11:31:00,
2013-01-24 04:36:00,48.9,22.5,30.13,West,277,0.0,0.0,35,0.00,,,0.00,meteohub,2013-01-24 11:36:00,
2013-01-24 04:42:00,48.7,22.3,30.13,West,277,0.0,0.0,35,0.00,,,0.00,meteohub,2013-01-24 11:42:00,
2013-01-24 04:47:00,48.9,22.5,30.13,West,277,0.0,0.0,35,0.00,,,0.00,meteohub,2013-01-24 11:47:00,
2013-01-24 04:52:00,49.3,22.8,30.12,West,277,0.0,0.0,35,0.00,,,0.00,meteohub,2013-01-24 11:52:00,
2013-01-24 04:57:00,49.3,23.5,30.12,West,277,0.0,0.0,36,0.00,,,0.00,meteohub,2013-01-24 11:57:00,
2013-01-24 05:02:00,48.9,22.5,30.12,West,277,0.0,1.0,35,0.00,,,0.00,meteohub,2013-01-24 12:02:00,
2013-01-24 05:07:00,48.7,22.3,30.12,West,277,0.0,1.0,35,0.00,,,0.00,meteohub,2013-01-24 12:07:00,
2013-01-24 05:12:00,48.7,22.3,30.12,West,277,0.0,1.0,35,0.00,,,0.00,meteohub,2013-01-24 12:12:00,
2013-01-24 05:17:00,49.1,22.6,30.12,West,277,1.0,2.0,35,0.00,,,0.00,meteohub,2013-01-24 12:17:00,
2013-01-24 05:23:00,49.5,23.5,30.12,West,277,0.0,2.0,36,0.00,,,0.00,meteohub,2013-01-24 12:23:00,
2013-01-24 05:28:00,49.6,22.5,30.11,West,277,0.0,2.0,34,0.00,,,0.00,meteohub,2013-01-24 12:28:00,
2013-01-24 05:33:00,49.6,23.7,30.12,West,277,0.0,2.0,36,0.00,,,0.00,meteohub,2013-01-24 12:33:00,
2013-01-24 05:38:00,49.3,22.8,30.12,West,277,0.0,2.0,35,0.00,,,0.00,meteohub,2013-01-24 12:38:00,
2013-01-24 05:44:00,49.3,22.8,30.11,West,277,0.0,2.0,35,0.00,,,0.00,meteohub,2013-01-24 12:44:00,
2013-01-24 05:49:00,49.1,23.4,30.12,West,277,0.0,0.0,36,0.00,,,0.00,meteohub,2013-01-24 12:49:00,
2013-01-24 05:54:00,49.1,23.4,30.12,West,277,0.0,0.0,36,0.00,,,0.00,meteohub,2013-01-24 12:54:00,
2013-01-24 06:00:00,48.9,23.2,30.12,West,277,0.0,0.0,36,0.00,,,0.00,meteohub,2013-01-24 13:00:00,
2013-01-24 06:05:00,48.9,23.2,30.12,West,277,0.0,0.0,36,0.00,,,0.00,meteohub,2013-01-24 13:05:00,
2013-01-24 06:10:00,48.9,23.7,30.12,West,277,0.0,0.0,37,0.00,,,0.00,meteohub,2013-01-24 13:10:00,
2013-01-24 06:16:00,48.7,23.5,30.12,West,277,0.0,0.0,37,0.00,,,0.00,meteohub,2013-01-24 13:16:00,
2013-01-24 06:21:00,48.7,23.5,30.12,West,277,0.0,0.0,37,0.00,,,0.00,meteohub,2013-01-24 13:21:00,
2013-01-24 06:26:00,48.9,23.2,30.12,West,277,0.0,0.0,36,0.00,,,0.00,meteohub,2013-01-24 13:26:00,
2013-01-24 06:31:00,48.9,23.2,30.12,West,277,0.0,0.0,36,0.00,,,0.00,meteohub,2013-01-24 13:31:00,
2013-01-24 06:37:00,48.9,23.2,30.12,West,277,0.0,0.0,36,0.00,,,0.00,meteohub,2013-01-24 13:37:00,
2013-01-24 06:42:00,48.9,23.2,30.12,West,277,0.0,0.0,36,0.00,,,0.00,meteohub,2013-01-24 13:42:00,
2013-01-24 06:47:00,49.1,23.4,30.12,West,277,0.0,0.0,36,0.00,,,0.00,meteohub,2013-01-24 13:47:00,
2013-01-24 06:52:00,49.3,23.5,30.13,West,277,0.0,0.0,36,0.00,,,0.00,meteohub,2013-01-24 13:52:00,
2013-01-24 06:57:00,49.1,23.4,30.13,West,277,0.0,0.0,36,0.00,,,0.00,meteohub,2013-01-24 13:57:00,
2013-01-24 07:03:00,48.9,23.7,30.13,West,277,0.0,0.0,37,0.00,,,0.00,meteohub,2013-01-24 14:03:00,
2013-01-24 07:08:00,48.9,23.7,30.13,West,277,0.0,0.0,37,0.00,,,0.00,meteohub,2013-01-24 14:08:00,
2013-01-24 07:13:00,48.7,23.5,30.13,West,277,0.0,0.0,37,0.00,,,0.00,meteohub,2013-01-24 14:13:00,
2013-01-24 07:19:00,48.7,24.3,30.13,West,277,0.0,0.0,38,0.00,,,0.00,meteohub,2013-01-24 14:19:00,
2013-01-24 07:24:00,48.7,23.5,30.13,West,277,0.0,0.0,37,0.00,,,0.00,meteohub,2013-01-24 14:24:00,
2013-01-24 07:29:00,48.6,23.5,30.13,West,277,0.0,0.0,37,0.00,,,0.00,meteohub,2013-01-24 14:29:00,
2013-01-24 07:34:00,48.7,23.5,30.13,West,277,0.0,0.0,37,0.00,,,0.00,meteohub,2013-01-24 14:34:00,
2013-01-24 07:40:00,48.9,24.4,30.13,West,277,0.0,0.0,38,0.00,,,0.00,meteohub,2013-01-24 14:40:00,
2013-01-24 07:45:00,48.7,23.5,30.13,West,277,0.0,0.0,37,0.00,,,0.00,meteohub,2013-01-24 14:45:00,
2013-01-24 07:50:00,48.9,23.7,30.13,West,277,0.0,0.0,37,0.00,,,0.00,meteohub,2013-01-24 14:50:00,
2013-01-24 07:56:00,49.1,23.9,30.14,West,277,0.0,0.0,37,0.00,,,0.00,meteohub,2013-01-24 14:56:00,
2013-01-24 08:01:00,49.1,24.6,30.14,West,277,0.0,0.0,38,0.00,,,0.00,meteohub,2013-01-24 15:01:00,
2013-01-24 08:06:00,49.3,24.1,30.14,West,277,0.0,0.0,37,0.00,,,0.00,meteohub,2013-01-24 15:06:00,
2013-01-24 08:12:00,49.3,24.8,30.14,West,277,0.0,0.0,38,0.00,,,0.00,meteohub,2013-01-24 15:12:00,
2013-01-24 08:17:00,49.3,24.1,30.14,West,277,0.0,0.0,37,0.00,,,0.00,meteohub,2013-01-24 15:17:00,
2013-01-24 08:22:00,49.5,24.3,30.14,West,277,0.0,0.0,37,0.00,,,0.00,meteohub,2013-01-24 15:22:00,
2013-01-24 08:27:00,49.5,25.0,30.14,West,277,0.0,0.0,38,0.00,,,0.00,meteohub,2013-01-24 15:27:00,
2013-01-24 08:32:00,49.6,25.7,30.14,West,277,0.0,0.0,39,0.00,,,0.00,meteohub,2013-01-24 15:32:00,
2013-01-24 08:37:00,49.6,25.7,30.14,West,277,0.0,0.0,39,0.00,,,0.00,meteohub,2013-01-24 15:37:00,
2013-01-24 08:42:00,49.6,27.0,30.14,West,277,0.0,0.0,41,0.00,,,0.00,meteohub,2013-01-24 15:42:00,
2013-01-24 08:47:00,49.6,27.0,30.15,West,277,0.0,0.0,41,0.00,,,0.00,meteohub,2013-01-24 15:47:00,
2013-01-24 08:53:00,49.6,27.0,30.15,West,277,0.0,0.0,41,0.00,,,0.00,meteohub,2013-01-24 15:53:00,
2013-01-24 08:58:00,49.8,25.9,30.15,West,277,0.0,0.0,39,0.00,,,0.00,meteohub,2013-01-24 15:58:00,
2013-01-24 09:03:00,50.2,26.8,30.15,West,277,0.0,0.0,40,0.00,,,0.00,meteohub,2013-01-24 16:03:00,
2013-01-24 09:09:00,50.4,28.2,30.15,West,277,1.0,3.0,42,0.00,,,0.00,meteohub,2013-01-24 16:09:00,
2013-01-24 09:14:00,50.4,28.2,30.15,West,277,1.0,3.0,42,0.00,,,0.00,meteohub,2013-01-24 16:14:00,
2013-01-24 09:19:00,50.5,28.9,30.15,West,277,0.0,2.0,43,0.00,,,0.00,meteohub,2013-01-24 16:19:00,
2013-01-24 09:25:00,50.5,28.9,30.15,West,277,0.0,2.0,43,0.00,,,0.00,meteohub,2013-01-24 16:25:00,
2013-01-24 09:30:00,50.5,28.9,30.16,West,277,0.0,2.0,43,0.00,,,0.00,meteohub,2013-01-24 16:30:00,
2013-01-24 09:35:00,50.7,30.2,30.17,West,277,0.0,2.0,45,0.00,,,0.00,meteohub,2013-01-24 16:35:00,
2013-01-24 09:41:00,50.7,30.7,30.17,West,275,0.0,1.0,46,0.00,,,0.00,meteohub,2013-01-24 16:41:00,
2013-01-24 09:46:00,50.7,30.7,30.17,West,275,0.0,1.0,46,0.00,,,0.00,meteohub,2013-01-24 16:46:00,
2013-01-24 09:51:00,50.5,33.1,30.17,West,275,0.0,2.0,51,0.00,,,0.00,meteohub,2013-01-24 16:51:00,
2013-01-24 09:57:00,50.4,35.8,30.17,West,275,0.0,2.0,57,0.00,,,0.00,meteohub,2013-01-24 16:57:00,
2013-01-24 10:02:00,50.4,36.1,30.17,West,275,0.0,1.0,58,0.00,,,0.00,meteohub,2013-01-24 17:02:00,
2013-01-24 10:07:00,50.4,36.1,30.17,West,275,0.0,1.0,58,0.00,,,0.00,meteohub,2013-01-24 17:07:00,
2013-01-24 10:12:00,50.4,37.0,30.17,West,277,3.0,0.0,60,0.00,,,0.00,meteohub,2013-01-24 17:12:00,
2013-01-24 10:17:00,50.5,36.7,30.17,West,277,0.0,0.0,59,0.00,,,0.00,meteohub,2013-01-24 17:17:00,
2013-01-24 10:22:00,50.7,38.1,30.17,SSW,192,2.0,4.0,62,0.00,,,0.00,meteohub,2013-01-24 17:22:00,
2013-01-24 10:27:00,51.1,38.1,30.17,WSW,244,6.0,6.0,61,0.00,,,0.00,meteohub,2013-01-24 17:27:00,
2013-01-24 10:32:00,51.4,36.3,30.17,SSW,213,0.0,8.0,56,0.00,,,0.00,meteohub,2013-01-24 17:32:00,
2013-01-24 10:37:00,52.2,38.3,30.17,South,176,0.0,8.0,59,0.00,,,0.00,meteohub,2013-01-24 17:37:00,
2013-01-24 10:42:00,52.5,39.4,30.17,South,171,0.0,9.0,61,0.00,,,0.00,meteohub,2013-01-24 17:42:00,
2013-01-24 10:47:00,52.3,37.0,30.17,SE,135,0.0,9.0,56,0.00,,,0.00,meteohub,2013-01-24 17:47:00,
2013-01-24 10:53:00,52.5,36.0,30.17,East,86,0.0,6.0,53,0.00,,,0.00,meteohub,2013-01-24 17:53:00,
2013-01-24 10:58:00,52.3,35.2,30.17,East,82,0.0,6.0,52,0.00,,,0.00,meteohub,2013-01-24 17:58:00,
2013-01-24 11:03:00,52.3,35.2,30.17,East,82,0.0,4.0,52,0.00,,,0.00,meteohub,2013-01-24 18:03:00,
2013-01-24 11:09:00,52.2,36.5,30.17,East,82,0.0,4.0,55,0.00,,,0.00,meteohub,2013-01-24 18:09:00,
2013-01-24 11:14:00,52.0,36.3,30.17,East,82,0.0,4.0,55,0.00,,,0.00,meteohub,2013-01-24 18:14:00,
2013-01-24 11:19:00,51.8,36.1,30.17,East,82,1.0,1.0,55,0.00,,,0.00,meteohub,2013-01-24 18:19:00,
2013-01-24 11:25:00,51.6,34.5,30.17,East,82,0.0,1.0,52,0.00,,,0.00,meteohub,2013-01-24 18:25:00,
2013-01-24 11:30:00,51.4,36.3,30.16,East,82,0.0,3.0,56,0.00,,,0.00,meteohub,2013-01-24 18:30:00,
2013-01-24 11:35:00,51.4,35.8,30.17,East,82,1.0,3.0,55,0.00,,,0.00,meteohub,2013-01-24 18:35:00,
2013-01-24 11:41:00,51.3,35.6,30.17,East,82,0.0,2.0,55,0.00,,,0.00,meteohub,2013-01-24 18:41:00,
2013-01-24 11:46:00,51.1,35.4,30.17,East,82,0.0,2.0,55,0.00,,,0.00,meteohub,2013-01-24 18:46:00,
2013-01-24 11:51:00,51.1,35.1,30.17,East,82,0.0,2.0,54,0.00,,,0.00,meteohub,2013-01-24 18:51:00,
2013-01-24 11:56:00,51.1,34.0,30.17,East,82,0.0,2.0,52,0.00,,,0.00,meteohub,2013-01-24 18:56:00,
2013-01-24 12:02:00,51.1,33.1,30.17,NNE,32,3.0,3.0,50,0.00,,,0.00,meteohub,2013-01-24 19:02:00,
2013-01-24 12:07:00,51.3,32.2,30.17,NNE,27,0.0,1.0,48,0.00,,,0.00,meteohub,2013-01-24 19:07:00,
2013-01-24 12:12:00,51.3,32.7,30.17,NNE,27,0.0,4.0,49,0.00,,,0.00,meteohub,2013-01-24 19:12:00,
2013-01-24 12:17:00,51.4,33.4,30.17,SE,126,4.0,4.0,50,0.00,,,0.00,meteohub,2013-01-24 19:17:00,
2013-01-24 12:22:00,51.6,33.1,30.17,SE,125,0.0,4.0,49,0.00,,,0.00,meteohub,2013-01-24 19:22:00,
2013-01-24 12:27:00,51.8,33.3,30.16,SE,125,1.0,7.0,49,0.00,,,0.00,meteohub,2013-01-24 19:27:00,
2013-01-24 12:32:00,52.2,34.5,30.16,SE,125,0.0,7.0,51,0.00,,,0.00,meteohub,2013-01-24 19:32:00,
2013-01-24 12:37:00,52.3,34.2,30.16,East,90,1.0,7.0,50,0.00,,,0.00,meteohub,2013-01-24 19:37:00,
2013-01-24 12:42:00,52.9,33.8,30.16,East,88,0.0,4.0,48,0.00,,,0.00,meteohub,2013-01-24 19:42:00,
2013-01-24 12:47:00,53.2,33.1,30.15,East,88,0.0,4.0,46,0.00,,,0.00,meteohub,2013-01-24 19:47:00,
2013-01-24 12:52:00,53.2,34.0,30.15,East,88,1.0,4.0,48,0.00,,,0.00,meteohub,2013-01-24 19:52:00,
2013-01-24 12:57:00,53.6,35.4,30.14,ENE,67,0.0,3.0,50,0.00,,,0.00,meteohub,2013-01-24 19:57:00,
2013-01-24 13:02:00,54.0,36.7,30.14,ENE,65,1.0,3.0,52,0.00,,,0.00,meteohub,2013-01-24 20:02:00,
2013-01-24 13:07:00,54.0,37.2,30.14,ENE,65,0.0,4.0,53,0.00,,,0.00,meteohub,2013-01-24 20:07:00,
2013-01-24 13:12:00,54.0,38.7,30.13,ESE,104,4.0,4.0,56,0.00,,,0.00,meteohub,2013-01-24 20:12:00,
2013-01-24 13:17:00,53.8,37.9,30.13,SSE,147,2.0,6.0,55,0.00,,,0.00,meteohub,2013-01-24 20:17:00,
2013-01-24 13:22:00,53.6,39.6,30.12,South,186,5.0,6.0,59,0.00,,,0.00,meteohub,2013-01-24 20:22:00,
2013-01-24 13:27:00,53.4,35.8,30.12,East,90,2.0,11.0,51,0.00,,,0.00,meteohub,2013-01-24 20:27:00,
2013-01-24 13:32:00,53.4,35.2,30.12,East,90,0.0,11.0,50,0.00,,,0.00,meteohub,2013-01-24 20:32:00,
2013-01-24 13:37:00,53.4,36.7,30.13,East,90,0.0,11.0,53,0.00,,,0.00,meteohub,2013-01-24 20:37:00,
2013-01-24 13:42:00,53.4,37.6,30.13,East,90,2.0,11.0,55,0.00,,,0.00,meteohub,2013-01-24 20:42:00,
2013-01-24 13:47:00,53.4,39.4,30.13,East,92,2.0,5.0,59,0.00,,,0.00,meteohub,2013-01-24 20:47:00,
2013-01-24 13:52:00,53.6,40.8,30.12,SSE,147,7.0,7.0,62,0.00,,,0.00,meteohub,2013-01-24 20:52:00,
2013-01-24 13:57:00,53.6,41.4,30.12,SSW,204,7.0,7.0,63,0.00,,,0.00,meteohub,2013-01-24 20:57:00,
2013-01-24 14:02:00,53.4,41.9,30.13,South,186,6.0,7.0,65,0.00,,,0.00,meteohub,2013-01-24 21:02:00,
2013-01-24 14:07:00,53.2,42.6,30.13,South,180,4.0,12.0,67,0.00,,,0.00,meteohub,2013-01-24 21:07:00,
2013-01-24 14:12:00,53.1,42.8,30.12,SSW,193,8.0,12.0,68,0.00,,,0.00,meteohub,2013-01-24 21:12:00,
2013-01-24 14:17:00,52.9,43.3,30.12,SSE,157,7.0,15.0,70,0.00,,,0.00,meteohub,2013-01-24 21:17:00,
2013-01-24 14:22:00,52.7,43.2,30.12,SSE,155,2.0,15.0,70,0.00,,,0.00,meteohub,2013-01-24 21:22:00,
2013-01-24 14:27:00,52.7,43.2,30.12,SE,129,8.0,13.0,70,0.00,,,0.00,meteohub,2013-01-24 21:27:00,
2013-01-24 14:32:00,52.9,43.3,30.12,SE,128,6.0,13.0,70,0.00,,,0.00,meteohub,2013-01-24 21:32:00,
2013-01-24 14:37:00,53.2,43.7,30.12,SE,124,4.0,14.0,70,0.00,,,0.00,meteohub,2013-01-24 21:37:00,
2013-01-24 14:42:00,53.4,43.5,30.12,SE,127,5.0,14.0,69,0.00,,,0.00,meteohub,2013-01-24 21:42:00,
2013-01-24 14:47:00,53.8,43.5,30.12,SE,130,7.0,9.0,68,0.00,,,0.00,meteohub,2013-01-24 21:47:00,
2013-01-24 14:52:00,53.4,43.2,30.12,SE,130,7.0,9.0,68,0.00,,,0.00,meteohub,2013-01-24 21:52:00,
2013-01-24 14:57:00,53.2,43.3,30.12,SSE,159,7.0,8.0,69,0.00,,,0.00,meteohub,2013-01-24 21:57:00,
2013-01-24 15:02:00,53.1,43.5,30.12,SSE,155,12.0,12.0,70,0.00,,,0.00,meteohub,2013-01-24 22:02:00,
2013-01-24 15:07:00,52.9,43.7,30.13,SE,142,7.0,15.0,71,0.00,,,0.00,meteohub,2013-01-24 22:07:00,
2013-01-24 15:12:00,52.5,43.7,30.13,South,169,10.0,15.0,72,0.00,,,0.00,meteohub,2013-01-24 22:12:00,
2013-01-24 15:17:00,52.5,44.1,30.12,SSE,157,11.0,16.0,73,0.00,,,0.00,meteohub,2013-01-24 22:17:00,
2013-01-24 15:22:00,52.3,44.6,30.20,SE,140,5.0,16.0,75,0.00,,,0.00,meteohub,2013-01-24 22:22:00,
2013-01-24 15:27:00,52.2,45.5,30.20,SE,133,7.0,13.0,78,0.00,,,0.00,meteohub,2013-01-24 22:27:00,
2013-01-24 15:32:00,51.4,45.1,30.21,ESE,123,6.0,13.0,79,0.00,,,0.00,meteohub,2013-01-24 22:32:00,
2013-01-24 15:38:00,51.1,45.5,30.21,ESE,121,6.0,14.0,81,0.00,,,0.00,meteohub,2013-01-24 22:38:00,
2013-01-24 15:43:00,50.4,45.3,30.21,SE,133,6.0,14.0,83,0.00,,,0.00,meteohub,2013-01-24 22:43:00,
2013-01-24 15:48:00,49.8,45.1,30.21,ESE,120,6.0,14.0,84,0.00,,,0.00,meteohub,2013-01-24 22:48:00,
2013-01-24 15:54:00,49.5,44.8,30.21,SSE,155,7.0,14.0,84,0.00,,,0.00,meteohub,2013-01-24 22:54:00,
2013-01-24 15:59:00,49.5,45.1,30.21,ESE,122,5.0,12.0,85,0.00,,,0.00,meteohub,2013-01-24 22:59:00,
2013-01-24 16:04:00,49.1,45.1,30.21,ESE,123,7.0,12.0,86,0.00,,,0.00,meteohub,2013-01-24 23:04:00,
2013-01-24 16:10:00,48.7,44.8,30.21,SE,142,6.0,12.0,86,0.00,,,0.00,meteohub,2013-01-24 23:10:00,
2013-01-24 16:15:00,48.6,44.8,30.21,SSE,165,4.0,11.0,87,0.01,,,0.00,meteohub,2013-01-24 23:15:00,
2013-01-24 16:20:00,48.6,44.8,30.21,SSE,155,0.0,11.0,87,0.01,,,0.00,meteohub,2013-01-24 23:20:00,
2013-01-24 16:26:00,48.4,44.8,30.21,SSE,155,0.0,9.0,87,0.01,,,0.01,meteohub,2013-01-24 23:26:00,
2013-01-24 16:31:00,48.4,44.8,30.22,ESE,121,0.0,9.0,87,0.01,,,0.01,meteohub,2013-01-24 23:31:00,
2013-01-24 16:36:00,48.4,45.0,30.22,ESE,121,0.0,4.0,88,0.01,,,0.01,meteohub,2013-01-24 23:36:00,
2013-01-24 16:42:00,48.6,45.1,30.22,ESE,121,0.0,4.0,88,0.01,,,0.01,meteohub,2013-01-24 23:42:00,
2013-01-24 16:47:00,48.6,45.1,30.22,ESE,121,0.0,4.0,88,0.01,,,0.01,meteohub,2013-01-24 23:47:00,
2013-01-24 16:53:00,48.4,44.8,30.22,ESE,106,1.0,4.0,87,0.01,,,0.01,meteohub,2013-01-24 23:53:00,
2013-01-24 16:58:00,48.2,44.6,30.22,ESE,106,0.0,4.0,87,0.01,,,0.01,meteohub,2013-01-24 23:58:00,
2013-01-24 17:03:00,48.0,44.1,30.22,ESE,106,0.0,4.0,86,0.01,,,0.01,meteohub,2013-01-25 00:03:00,
2013-01-24 17:08:00,48.0,44.4,30.23,ESE,106,0.0,4.0,87,0.01,,,0.01,meteohub,2013-01-25 00:08:00,
2013-01-24 17:14:00,47.8,43.9,30.23,ESE,106,0.0,4.0,86,0.00,,,0.01,meteohub,2013-01-25 00:14:00,
2013-01-24 17:19:00,47.8,43.9,30.23,East,94,0.0,1.0,86,0.00,,,0.01,meteohub,2013-01-25 00:19:00,
2013-01-24 17:24:00,47.7,43.3,30.22,ENE,59,0.0,1.0,85,0.00,,,0.01,meteohub,2013-01-25 00:24:00,
2013-01-24 17:30:00,47.5,42.8,30.23,ENE,59,0.0,3.0,84,0.00,,,0.01,meteohub,2013-01-25 00:30:00,
2013-01-24 17:35:00,47.5,43.2,30.23,ENE,59,0.0,3.0,85,0.00,,,0.01,meteohub,2013-01-25 00:35:00,
2013-01-24 17:40:00,47.5,43.2,30.23,ENE,59,0.0,3.0,85,0.00,,,0.01,meteohub,2013-01-25 00:40:00,
2013-01-24 17:46:00,47.5,43.2,30.22,ENE,59,0.0,0.0,85,0.00,,,0.01,meteohub,2013-01-25 00:46:00,
2013-01-24 17:51:00,47.3,43.0,30.22,ENE,59,0.0,0.0,85,0.00,,,0.01,meteohub,2013-01-25 00:51:00,
2013-01-24 17:56:00,47.1,42.8,30.23,ENE,59,0.0,0.0,85,0.00,,,0.01,meteohub,2013-01-25 00:56:00,
2013-01-24 18:01:00,47.1,42.8,30.23,NNE,30,0.0,0.0,85,0.00,,,0.01,meteohub,2013-01-25 01:01:00,
2013-01-24 18:07:00,46.9,42.6,30.23,North,10,0.0,3.0,85,0.00,,,0.01,meteohub,2013-01-25 01:07:00,
2013-01-24 18:12:00,46.9,42.6,30.23,North,10,0.0,3.0,85,0.00,,,0.01,meteohub,2013-01-25 01:12:00,
2013-01-24 18:17:00,46.9,42.6,30.23,North,5,2.0,3.0,85,0.00,,,0.01,meteohub,2013-01-25 01:17:00,
2013-01-24 18:22:00,46.9,42.6,30.23,NNW,342,0.0,3.0,85,0.00,,,0.01,meteohub,2013-01-25 01:22:00,
2013-01-24 18:27:00,46.9,42.6,30.23,NNW,342,1.0,3.0,85,0.00,,,0.01,meteohub,2013-01-25 01:27:00,
2013-01-24 18:32:00,46.9,43.0,30.22,West,281,2.0,3.0,86,0.00,,,0.01,meteohub,2013-01-25 01:32:00,
2013-01-24 18:37:00,46.9,43.0,30.21,West,279,0.0,4.0,86,0.00,,,0.01,meteohub,2013-01-25 01:37:00,
2013-01-24 18:42:00,46.9,43.0,30.22,West,279,0.0,4.0,86,0.00,,,0.01,meteohub,2013-01-25 01:42:00,
2013-01-24 18:47:00,46.9,43.0,30.22,West,279,0.0,3.0,86,0.00,,,0.01,meteohub,2013-01-25 01:47:00,
2013-01-24 18:52:00,46.9,43.0,30.22,West,279,0.0,3.0,86,0.00,,,0.01,meteohub,2013-01-25 01:52:00,
2013-01-24 18:57:00,46.9,43.0,30.22,West,279,0.0,0.0,86,0.00,,,0.01,meteohub,2013-01-25 01:57:00,
2013-01-24 19:02:00,46.9,43.0,30.23,West,280,1.0,0.0,86,0.00,,,0.01,meteohub,2013-01-25 02:02:00,
2013-01-24 19:07:00,47.1,42.8,30.23,West,270,3.0,5.0,85,0.00,,,0.01,meteohub,2013-01-25 02:07:00,
2013-01-24 19:12:00,47.1,42.6,30.23,West,281,3.0,5.0,84,0.00,,,0.01,meteohub,2013-01-25 02:12:00,
2013-01-24 19:17:00,47.3,43.0,30.23,WNW,299,3.0,5.0,85,0.00,,,0.01,meteohub,2013-01-25 02:17:00,
2013-01-24 19:22:00,47.5,43.5,30.23,WNW,294,4.0,5.0,86,0.00,,,0.01,meteohub,2013-01-25 02:22:00,
2013-01-24 19:27:00,47.5,43.5,30.23,WNW,294,0.0,5.0,86,0.00,,,0.01,meteohub,2013-01-25 02:27:00,
2013-01-24 19:32:00,47.5,43.5,30.23,WNW,294,0.0,5.0,86,0.00,,,0.01,meteohub,2013-01-25 02:32:00,
2013-01-24 19:37:00,47.5,43.5,30.23,WNW,294,0.0,5.0,86,0.00,,,0.01,meteohub,2013-01-25 02:37:00,
2013-01-24 19:42:00,47.5,43.5,30.24,WNW,294,0.0,5.0,86,0.00,,,0.01,meteohub,2013-01-25 02:42:00,
2013-01-24 19:47:00,47.5,43.5,30.24,WNW,294,0.0,1.0,86,0.00,,,0.01,meteohub,2013-01-25 02:47:00,
2013-01-24 19:52:00,47.5,43.5,30.25,WNW,294,0.0,1.0,86,0.00,,,0.01,meteohub,2013-01-25 02:52:00,
2013-01-24 19:57:00,47.5,43.5,30.25,WNW,294,0.0,0.0,86,0.00,,,0.01,meteohub,2013-01-25 02:57:00,
2013-01-24 20:02:00,47.5,43.5,30.25,WNW,294,0.0,0.0,86,0.00,,,0.01,meteohub,2013-01-25 03:02:00,
2013-01-24 20:07:00,47.3,43.3,30.25,WNW,294,0.0,0.0,86,0.00,,,0.01,meteohub,2013-01-25 03:07:00,
2013-01-24 20:12:00,47.3,43.7,30.25,WNW,294,0.0,0.0,87,0.00,,,0.01,meteohub,2013-01-25 03:12:00,
2013-01-24 20:17:00,47.3,43.7,30.25,WNW,294,0.0,1.0,87,0.00,,,0.01,meteohub,2013-01-25 03:17:00,
2013-01-24 20:22:00,47.1,43.5,30.25,WNW,295,0.0,1.0,87,0.00,,,0.01,meteohub,2013-01-25 03:22:00,
2013-01-24 20:27:00,47.1,43.5,30.26,WNW,295,0.0,3.0,87,0.00,,,0.01,meteohub,2013-01-25 03:27:00,
2013-01-24 20:32:00,46.9,43.3,30.25,WNW,295,0.0,3.0,87,0.00,,,0.01,meteohub,2013-01-25 03:32:00,
2013-01-24 20:37:00,46.9,43.5,30.26,WNW,295,0.0,2.0,88,0.00,,,0.01,meteohub,2013-01-25 03:37:00,
2013-01-24 20:42:00,46.8,44.6,30.26,WNW,294,0.0,2.0,92,0.00,,,0.01,meteohub,2013-01-25 03:42:00,
2013-01-24 20:47:00,46.8,43.3,30.26,WNW,294,0.0,3.0,88,0.00,,,0.01,meteohub,2013-01-25 03:47:00,
2013-01-24 20:52:00,46.6,43.2,30.26,WNW,294,0.0,3.0,88,0.00,,,0.01,meteohub,2013-01-25 03:52:00,
2013-01-24 20:57:00,46.6,43.5,30.26,WNW,294,0.0,2.0,89,0.00,,,0.01,meteohub,2013-01-25 03:57:00,
2013-01-24 21:02:00,46.6,43.5,30.26,WNW,294,2.0,2.0,89,0.00,,,0.01,meteohub,2013-01-25 04:02:00,
2013-01-24 21:07:00,46.6,43.9,30.26,WNW,294,2.0,5.0,90,0.00,,,0.01,meteohub,2013-01-25 04:07:00,
2013-01-24 21:12:00,46.6,43.9,30.26,WNW,300,2.0,5.0,90,0.00,,,0.01,meteohub,2013-01-25 04:12:00,
2013-01-24 21:17:00,46.6,44.1,30.26,WNW,300,0.0,5.0,91,0.00,,,0.01,meteohub,2013-01-25 04:17:00,
2013-01-24 21:22:00,46.6,44.1,30.26,WNW,300,0.0,5.0,91,0.00,,,0.01,meteohub,2013-01-25 04:22:00,
2013-01-24 21:27:00,46.4,43.9,30.26,WNW,300,0.0,3.0,91,0.00,,,0.01,meteohub,2013-01-25 04:27:00,
2013-01-24 21:32:00,46.4,43.9,30.26,WNW,300,0.0,3.0,91,0.00,,,0.01,meteohub,2013-01-25 04:32:00,
2013-01-24 21:37:00,46.4,43.9,30.26,WNW,300,0.0,1.0,91,0.00,,,0.01,meteohub,2013-01-25 04:37:00,
2013-01-24 21:42:00,46.4,43.9,30.26,WNW,300,1.0,1.0,91,0.00,,,0.01,meteohub,2013-01-25 04:42:00,
2013-01-24 21:47:00,46.4,43.9,30.26,WNW,300,0.0,1.0,91,0.00,,,0.01,meteohub,2013-01-25 04:47:00,
2013-01-24 21:52:00,46.4,43.9,30.25,WNW,300,0.0,1.0,91,0.00,,,0.01,meteohub,2013-01-25 04:52:00,
2013-01-24 21:57:00,46.6,44.1,30.25,WNW,300,0.0,1.0,91,0.00,,,0.01,meteohub,2013-01-25 04:57:00,
2013-01-24 22:00:00,46.4,43.9,30.25,WNW,300,0.0,1.0,91,0.00,,,0.01,meteohub,2013-01-25 05:00:00,
2013-01-24 22:01:00,46.6,44.1,30.25,WNW,300,0.0,1.0,91,0.00,,,0.01,meteohub,2013-01-25 05:01:00,
2013-01-24 22:03:00,46.6,44.1,30.25,WNW,300,0.0,1.0,91,0.00,,,0.01,meteohub,2013-01-25 05:03:00,
2013-01-24 22:04:00,46.4,43.9,30.25,WNW,300,0.0,1.0,91,0.00,,,0.01,meteohub,2013-01-25 05:04:00,
2013-01-24 22:09:00,46.4,43.9,30.25,WNW,300,0.0,0.0,91,0.00,,,0.01,meteohub,2013-01-25 05:09:00,
2013-01-24 22:15:00,46.4,43.9,30.26,WNW,300,0.0,0.0,91,0.00,,,0.01,meteohub,2013-01-25 05:15:00,
2013-01-24 22:20:00,46.2,43.7,30.26,WNW,300,0.0,0.0,91,0.00,,,0.01,meteohub,2013-01-25 05:20:00,
2013-01-24 22:25:00,46.2,43.5,30.26,WNW,300,0.0,0.0,90,0.00,,,0.01,meteohub,2013-01-25 05:25:00,
2013-01-24 22:31:00,46.2,43.7,30.25,WNW,300,0.0,0.0,91,0.00,,,0.01,meteohub,2013-01-25 05:31:00,
2013-01-24 22:36:00,46.2,43.7,30.26,WNW,300,0.0,0.0,91,0.00,,,0.01,meteohub,2013-01-25 05:36:00,
2013-01-24 22:42:00,46.2,43.7,30.26,WNW,300,0.0,0.0,91,0.00,,,0.01,meteohub,2013-01-25 05:42:00,
2013-01-24 22:47:00,46.2,43.7,30.26,WNW,300,0.0,0.0,91,0.00,,,0.01,meteohub,2013-01-25 05:47:00,
2013-01-24 22:52:00,46.2,43.7,30.26,WNW,300,0.0,0.0,91,0.00,,,0.01,meteohub,2013-01-25 05:52:00,
2013-01-24 22:57:00,46.2,44.1,30.26,WNW,300,0.0,2.0,92,0.00,,,0.01,meteohub,2013-01-25 05:57:00,
2013-01-24 23:02:00,46.4,43.9,30.25,WNW,300,0.0,2.0,91,0.00,,,0.01,meteohub,2013-01-25 06:02:00,
2013-01-24 23:07:00,46.6,44.1,30.25,WNW,299,0.0,3.0,91,0.00,,,0.01,meteohub,2013-01-25 06:07:00,
2013-01-24 23:12:00,46.6,44.1,30.25,WNW,285,1.0,3.0,91,0.00,,,0.01,meteohub,2013-01-25 06:12:00,
2013-01-24 23:18:00,46.6,44.1,30.25,West,274,3.0,4.0,91,0.00,,,0.01,meteohub,2013-01-25 06:18:00,
2013-01-24 23:23:00,46.6,44.1,30.25,West,264,2.0,4.0,91,0.00,,,0.01,meteohub,2013-01-25 06:23:00,
2013-01-24 23:28:00,46.8,44.2,30.24,WSW,250,1.0,5.0,91,0.00,,,0.01,meteohub,2013-01-25 06:28:00,
2013-01-24 23:34:00,46.8,44.2,30.25,WSW,250,1.0,5.0,91,0.00,,,0.01,meteohub,2013-01-25 06:34:00,
2013-01-24 23:39:00,46.6,44.1,30.25,WSW,250,2.0,5.0,91,0.00,,,0.01,meteohub,2013-01-25 06:39:00,
2013-01-24 23:44:00,46.6,44.1,30.25,WSW,246,0.0,5.0,91,0.00,,,0.01,meteohub,2013-01-25 06:44:00,
2013-01-24 23:50:00,46.6,44.1,30.24,WSW,246,2.0,4.0,91,0.00,,,0.01,meteohub,2013-01-25 06:50:00,
2013-01-24 23:55:00,46.4,43.9,30.24,WSW,246,1.0,5.0,91,0.00,,,0.01,meteohub,2013-01-25 06:55:00,